[Date Prev][Date Next][Thread Prev][Thread Next] - [Date Index][Thread Index][Author Index]

ISS 2Line Keps 11/29





ISS
1 25544U 98067A   02333.16110817  .00017698  00000-0  23343-3 0  4260
2 25544  51.6375 304.6132 0008889 191.4508 277.3716 15.58448182229708






_________________________________________________________________
Add photos to your e-mail with MSN 8. Get 2 months FREE*. 
http://join.msn.com/?page=features/featuredemail

----
Via the sarex mailing list at AMSAT.ORG courtesy of AMSAT-NA.
To unsubscribe, send "unsubscribe sarex" to Majordomo@amsat.org



AMSAT Top AMSAT Home